Portada
METAR-TAF:

METAR-TAF

Aeropuertos :

Cleveland, Misisipi, Estados Unidos

latitud: 33-45-40N, longitud: 090-45-28W, altitud: 42 m

Observación

El informe se hizo hace 6 minutos, a las 01:55 UTC
Viento calma
Temperatura 23°C
Humedad 100%
Presión 1012 hPa
Visibilidad: 16.1 km
Cielo despejado

METAR: KRNV 100155Z AUTO 00000KT 10SM CLR 23/23 A2989 RMK AO2 T02280228

Hora: 21:01 (02:01 UTC)


TAF: falta

Observaciones y pronósticos meteorológicos de más de 4000 aeropuertos (mensajes METAR y TAF).

Los puntos amarillos y rojos representan las estaciones disponibles.

Ponga el ratón en el punto deseado para ver el nombre de la estación.

Haga clic para ver las observaciones y los pronósticos meteorológicos.

Para cambiar el mapa : haga clic en los botones verdes con una cruz de color negro para hacer un zoom, en el botón verde con un guión para alejar o en las flechas verdes para mapas adyacentes.


METAR-TAF: